Vorticity
nan nan nan nan nan nan nan nan nan nan nan nan nan nan nan nan nan nan nan nan nan nan nan nan nan nan nan nan nan nan nan nan nan nan nan nan nan nan nan nan nan nan nan nan nan
nan 7 7 7 8 9 9 8 8 9 9 10 10 10 12 19 17 9 7 8 20 10 5 10 6 7 14 12 11 10 11 15 7 9 6 -4 5 9 4 2 -2 -1 6 10 nan
nan 6 6 7 9 10 9 8 9 10 9 9 9 9 18 16 9 11 5 11 10 1 6 7 5 4 6 9 11 9 10 15 14 5 16 8 -2 3 7 5 12 -0 -2 4 nan
nan 6 6 7 9 9 9 10 10 10 9 8 10 16 13 6 6 8 2 5 9 11 8 6 5 6 7 7 4 2 0 5 20 16 6 11 10 3 7 4 9 11 4 5 nan
nan 7 7 8 9 9 9 10 10 9 9 10 12 18 9 7 9 5 5 5 10 15 7 6 5 7 5 1 5 10 4 3 -1 9 11 16 22 12 3 4 8 15 6 6 nan
nan 7 7 9 10 9 9 9 8 9 13 14 15 12 4 3 9 5 9 11 12 8 8 9 5 7 6 8 5 5 6 7 8 6 13 14 17 14 6 13 5 8 11 8 nan
nan 7 8 10 11 10 9 7 9 13 16 16 15 6 4 6 3 8 11 8 8 7 9 7 9 7 7 9 11 3 8 16 16 10 3 9 23 19 5 2 13 7 9 10 nan
nan 8 9 11 11 10 10 7 11 15 15 19 14 8 4 10 5 3 9 9 10 9 10 8 15 6 7 6 6 13 11 10 17 14 3 11 17 16 15 5 4 12 10 10 nan
nan 9 10 13 12 11 10 9 14 15 19 18 9 7 6 2 3 10 12 8 6 12 10 13 11 8 7 9 7 11 8 6 12 16 10 3 5 14 11 16 3 5 11 9 nan
nan 10 12 13 12 13 12 19 20 12 16 11 5 5 8 3 4 14 10 9 10 10 11 12 6 4 5 8 6 3 4 4 7 12 15 5 1 8 11 15 11 5 6 8 nan
nan 11 14 11 14 19 16 16 10 8 11 10 7 3 5 9 8 11 10 11 15 8 7 7 6 6 5 4 3 1 3 3 8 8 8 10 7 7 7 7 10 9 12 14 nan
nan 12 14 12 19 19 12 11 10 7 5 9 8 8 9 6 6 7 11 10 8 6 7 13 9 9 9 8 9 5 7 8 9 9 11 14 11 8 10 10 4 4 8 10 nan
nan 13 13 17 22 10 9 5 11 11 8 9 11 8 9 6 12 4 6 12 8 7 11 9 9 10 14 13 15 8 9 8 4 10 15 15 18 18 12 7 8 6 2 7 nan
nan 14 13 23 17 7 5 10 13 6 7 4 10 8 1 13 6 11 14 8 6 7 12 7 8 7 7 13 11 9 11 6 8 9 16 10 16 19 15 10 8 5 4 5 nan
nan 14 21 25 9 7 9 14 9 5 0 7 13 1 5 18 8 8 8 14 3 10 12 4 10 11 10 13 6 9 15 24 18 2 1 8 11 21 20 10 14 9 7 1 nan
nan 17 23 17 9 6 12 11 6 10 5 11 5 1 15 8 10 13 8 9 15 12 6 12 19 13 13 11 14 9 15 23 13 11 9 10 8 11 4 7 21 20 15 8 nan
nan 24 18 11 4 12 14 7 12 4 5 6 5 5 12 12 11 10 7 8 11 3 9 30 14 9 6 10 23 17 7 9 11 9 14 17 1 4 6 9 18 29 16 10 nan
nan 23 15 8 9 13 9 9 8 7 5 5 4 12 11 9 11 11 12 12 8 7 9 13 8 9 9 13 10 14 11 9 9 10 11 13 10 3 3 8 10 21 15 10 nan
nan 16 6 2 16 15 8 12 6 6 6 8 13 18 8 8 8 10 14 10 2 4 16 14 3 1 9 17 18 12 10 6 7 9 9 9 9 -1 -0 5 8 9 7 8 nan
nan 10 1 7 17 13 12 7 8 5 10 13 12 7 5 5 8 11 14 7 4 2 12 12 10 2 9 17 16 8 13 13 10 10 7 5 4 -0 1 5 7 6 8 8 nan
nan 11 3 11 17 10 10 5 6 7 11 12 9 7 6 5 13 11 8 7 5 4 11 17 12 3 12 10 12 19 13 12 14 11 12 6 1 3 7 8 9 7 8 7 nan
nan 6 9 12 11 9 5 7 10 11 8 11 11 11 3 9 17 10 11 4 -1 12 17 16 9 10 12 10 3 6 9 10 8 8 11 10 6 3 8 9 9 8 9 8 nan
nan 7 9 11 8 10 9 12 11 7 8 11 10 9 8 10 13 9 8 5 2 10 12 13 13 12 13 8 -3 -5 7 25 17 5 9 13 6 2 7 7 8 10 10 9 nan
nan 9 12 8 11 6 10 12 8 11 10 11 9 7 8 13 10 6 8 4 11 8 9 23 13 14 14 11 5 1 5 22 26 15 10 12 5 0 7 8 10 9 11 11 nan
nan 11 9 5 7 9 11 7 7 11 12 8 13 5 8 12 11 8 5 8 12 10 15 13 8 13 13 4 1 4 7 11 16 16 16 10 4 4 7 10 10 7 7 8 nan
nan 11 10 10 7 10 12 9 8 11 8 8 3 5 17 14 3 -4 10 13 8 7 8 11 15 12 12 7 -3 -4 3 11 5 13 12 13 2 1 9 9 7 7 7 7 nan
nan nan nan nan nan nan nan nan nan nan nan nan nan nan nan nan nan nan nan nan nan nan nan nan nan nan nan nan nan nan nan nan nan nan nan nan nan nan nan nan nan nan nan nan nan
CAPE
34 31 33 33 37 31 35 34 31 26 22 38 33 35 33 35 47 3 3 3 9 58 40 0 0 0 0 12 4 2 169 31 1 0 0 0 0 0 0 0 0 0 0 0 0
27 28 27 29 32 29 28 28 34 35 32 34 28 27 29 25 0 0 2 59 114 12 0 0 0 0 0 6 7 28 17 25 0 2 0 0 0 0 0 0 0 0 0 0 0
27 27 20 21 26 26 27 26 28 24 28 27 26 25 24 0 0 0 0 16 83 5 0 4 2 0 0 3 7 19 9 4 0 24 12 0 1 0 0 0 0 0 0 0 0
28 27 21 22 21 20 24 18 21 18 24 22 15 11 0 0 0 0 0 0 40 58 64 0 0 0 0 0 0 5 0 8 2 12 53 5 0 0 0 0 0 0 0 0 0
24 23 18 22 20 15 14 8 6 9 17 15 6 1 0 0 0 0 11 7 0 0 16 0 0 0 0 0 0 1 0 0 6 1 0 13 25 1 0 0 0 0 0 0 0
25 19 18 20 16 11 8 1 0 0 1 0 0 0 0 0 0 0 0 0 0 3 0 0 0 0 8 0 4 0 0 0 0 0 10 2 15 64 15 0 0 0 0 0 0
19 20 21 19 14 10 4 0 0 0 0 0 0 0 0 0 0 0 0 0 0 0 0 0 3 18 23 28 1 4 10 3 5 0 14 7 7 22 5 2 5 0 0 0 0
20 16 18 20 10 10 1 0 0 0 0 0 0 0 0 0 0 0 0 0 0 0 0 0 0 31 32 12 5 1 2 0 0 0 0 18 2 1 3 1 3 3 1 0 0
17 14 15 13 10 9 0 0 0 0 0 0 0 0 0 0 0 0 0 0 0 0 0 0 33 36 24 3 3 6 0 0 0 0 0 11 16 0 13 16 15 0 0 1 1
14 16 12 5 6 1 0 0 0 0 0 0 0 0 0 0 0 0 0 0 0 0 0 7 40 30 15 15 5 0 2 0 0 0 0 25 18 18 7 56 7 2 6 3 8
16 14 5 0 2 0 0 0 0 0 0 0 0 0 0 0 0 0 0 0 0 0 0 0 0 0 0 0 3 4 3 0 0 0 13 41 4 2 3 40 17 19 0 0 3
17 15 1 0 0 0 0 0 0 0 0 0 0 0 0 0 0 0 0 0 0 0 0 0 0 0 0 0 0 4 16 0 0 0 0 1 5 0 13 46 15 29 23 1 0
22 5 0 0 0 0 0 0 0 0 0 0 0 0 0 0 0 0 0 0 0 0 0 0 0 0 0 0 0 0 13 0 0 0 2 7 4 34 1 32 39 46 23 0 0
32 0 0 0 0 0 0 0 0 0 0 0 0 0 0 0 0 0 0 0 0 0 0 0 0 0 4 1 1 0 0 0 1 6 0 31 0 23 1 3 9 4 41 10 0
32 0 0 0 0 0 0 0 0 0 0 0 0 0 0 0 0 0 0 0 0 0 0 0 0 0 1 0 0 0 0 0 0 0 0 0 0 2 5 36 22 5 1 5 2
23 0 0 0 0 0 0 0 0 0 0 0 0 0 0 0 0 0 0 0 0 0 0 0 0 1 0 0 1 0 7 0 9 2 1 0 0 0 3 1 1 18 0 0 0
4 0 0 0 0 0 0 0 0 0 0 0 0 0 0 0 0 0 0 0 0 0 0 0 0 6 12 0 0 7 0 1 14 1 0 0 11 2 2 3 8 0 8 0 0
0 0 0 0 0 0 0 0 0 0 0 0 0 0 0 0 0 0 0 0 0 0 0 0 0 0 0 4 0 0 0 0 1 0 0 0 0 2 7 2 3 3 1 0 0
0 0 0 0 0 0 0 0 0 0 1 3 0 0 0 0 0 0 0 0 0 0 0 0 0 0 1 4 15 23 0 9 3 0 0 0 3 0 0 2 1 2 0 1 0
0 0 0 0 0 0 0 0 0 0 1 0 0 0 0 0 0 0 0 0 0 0 0 0 0 0 0 0 0 4 1 0 0 19 8 0 0 0 0 1 2 2 1 0 2
0 0 0 0 0 0 0 0 0 0 0 0 0 0 0 0 0 0 0 0 0 0 0 0 0 0 0 0 0 0 0 0 0 1 43 0 0 8 2 4 1 3 4 2 1
0 0 0 0 0 0 0 0 0 0 0 0 0 0 3 1 0 0 0 0 0 0 0 0 0 0 0 1 0 0 1 1 0 0 0 0 0 2 1 4 3 2 4 3 2
0 0 0 0 0 0 0 0 0 0 0 0 0 0 0 0 1 0 0 0 0 0 0 0 0 0 0 0 0 0 0 0 0 1 0 0 0 2 0 0 3 2 3 2 3
0 0 0 0 0 0 0 0 0 0 0 0 0 0 0 0 0 0 0 0 0 0 5 0 0 0 0 0 0 0 0 0 0 0 0 0 0 0 0 0 1 1 2 2 2
0 0 0 0 0 0 0 0 0 0 0 0 0 0 0 0 0 0 0 0 0 0 0 0 0 0 0 0 0 0 0 0 0 0 0 0 0 1 0 0 1 2 1 1 1
0 0 0 0 0 0 0 0 0 0 0 0 0 0 0 0 0 0 0 0 0 0 0 0 0 0 0 0 0 0 0 0 0 0 0 0 0 0 1 1 2 0 1 1 0
1 6 5 0 0 0 0 0 0 0 0 0 0 0 0 0 0 0 0 0 0 0 0 0 0 0 0 0 0 0 0 0 0 0 0 0 0 1 0 1 1 0 1 1 1